Location: Cedar Springs
(43.2230°N, 85.5510°W)
Time: 09:43:31
(UTC-04:00)

Cosmos 2278 Rocket - Visible Passes

Search period start: 23 August 2017 00:00
Search period end: 02 September 2017 00:00
Orbit: 840 x 846 km, 71.0° (Epoch: 22 August)

Date Brightness Start Highest point End Pass type
(mag) Time Alt. Az. Time Alt. Az. Time Alt. Az.
23 Aug 3.5 00:30:16 10° NW 00:34:14 33° W 00:34:14 33° W visible
23 Aug 3.1 22:31:38 10° N 22:36:48 34° NE 22:38:10 30° E visible
24 Aug 3.3 00:15:42 10° NW 00:20:01 36° W 00:20:01 36° W visible
24 Aug 3.2 22:17:07 10° N 22:22:14 33° NE 22:23:59 27° E visible
25 Aug 3.2 00:01:07 10° NW 00:05:50 39° W 00:05:50 39° W visible
25 Aug 3.2 22:02:37 10° N 22:07:41 32° NE 22:09:50 24° E visible
25 Aug 3.0 23:46:33 10° NW 23:51:41 41° WSW 23:51:41 41° WSW visible
26 Aug 3.2 21:48:07 10° N 21:53:07 31° NE 21:55:43 21° E visible
26 Aug 2.9 23:31:58 10° NW 23:37:19 43° WSW 23:37:34 43° WSW visible
27 Aug 3.3 21:33:36 10° N 21:38:33 29° NE 21:41:39 18° E visible
27 Aug 2.8 23:17:25 10° NW 23:22:48 45° WSW 23:23:30 43° SW visible
28 Aug 3.3 21:19:05 10° N 21:23:59 28° NE 21:27:38 15° ESE visible
28 Aug 2.9 23:02:50 10° NW 23:08:17 47° WSW 23:09:29 41° SW visible
29 Aug 3.3 21:04:35 10° N 21:09:25 27° NE 21:13:40 12° ESE visible
29 Aug 2.8 22:48:17 10° NW 22:53:45 50° WSW 22:55:31 37° SSW visible
30 Aug 3.4 20:50:05 10° N 20:54:51 27° NE 20:59:35 10° ESE visible
30 Aug 2.8 22:33:43 10° NW 22:39:13 52° WSW 22:41:37 31° SSW visible
31 Aug 2.8 22:19:10 10° NNW 22:24:42 54° WSW 22:27:46 26° S visible
01 Sep 2.7 22:04:37 10° NNW 22:10:10 57° WSW 22:14:00 20° S visible
